Find Local Weather

World > North America > United States > Nevada

Winnemucca Indian Colony, Nevada Regional Weather

Lat: 40.98N, Lon: 117.74W
Wx Zone: NVZ030
Feedback

Winnemucca Indian Colony, NV Regional Weather

Expires:201905232100;;344409
ASUS45 KREV 232010
RWRNV 
NEVADA REGIONAL WEATHER ROUNDUP
NATIONAL WEATHER SERVICE RENO NV
100 PM PDT THU MAY 23 2019

NOTE: "FAIR" INDICATES FEW OR NO CLOUDS BELOW 12,000 FEET WITH NO
SIGNIFICANT WEATHER AND/OR OBSTRUCTIONS TO VISIBILITY.


NVZ030-031-036-232100-
NORTHERN NEVADA
  
CITY           SKY/WX    TMP DP  RH WIND       PRES   REMARKS
ELKO           CLOUDY    53  35  50 N14G24    29.77S                  
WINNEMUCCA     PTSUNNY   58  36  43 NE15G23   29.82F                  
WENDOVER       CLOUDY    49  40  71 N10       29.77R                  
$$


SKY/WX - Weather  TMP - Temperature  DP - Dew Point  RH - Relative Humidity
WIND - Wind Direction/Speed PRES - Barometric Pressure VSB - Visibility
WCI - Wind Chill Index E13G22 Wind - East Wind 13 mph/Gusts of 22 mph